Probability
12 9 5 3 3 2 1 0 0 0 0 0 0 0 0 1 2 3 6 9 10 8 5 5 6 5 4 3 3 3 2 2 1 0 0 0 1 1 1 1 1 2 3
12 9 6 4 2 1 0 0 0 0 0 0 0 0 0 0 1 2 3 5 7 7 6 6 7 6 4 3 2 2 1 1 1 1 0 0 1 2 1 1 1 1 2
11 10 8 6 2 0 0 0 0 0 0 0 0 0 0 0 0 1 1 2 4 6 7 6 6 5 3 2 2 1 1 2 2 2 1 1 1 1 1 0 0 0 1
10 10 10 7 3 0 0 0 0 0 0 0 0 0 0 0 0 0 0 1 2 3 5 5 5 3 3 3 3 3 3 3 3 2 2 2 2 1 0 0 0 0 0
9 10 9 6 2 0 0 0 0 0 0 0 0 0 0 0 0 0 0 0 0 1 2 3 3 3 2 3 4 4 3 3 3 2 1 1 1 1 0 0 0 0 0
12 12 9 6 3 1 0 0 0 0 0 0 0 0 0 0 0 0 0 0 0 0 0 1 1 1 1 1 1 1 1 2 2 2 0 0 0 0 0 0 0 0 0
14 12 9 6 4 2 1 0 0 0 0 0 0 0 0 0 0 0 0 0 0 0 0 0 0 0 0 0 0 1 1 2 2 1 0 0 0 0 0 0 0 0 0
9 9 8 6 4 2 1 0 0 0 0 0 0 0 0 0 0 0 0 0 0 0 0 0 0 0 0 0 0 1 1 1 1 0 0 0 0 0 0 0 0 0 0
5 5 6 6 4 2 1 0 0 0 0 0 0 0 0 0 0 0 0 0 0 0 0 0 0 0 0 0 0 1 1 0 0 0 0 0 0 0 0 0 0 0 0
3 4 5 5 4 2 1 0 0 0 0 0 0 0 0 0 0 0 0 0 0 0 0 0 0 0 0 0 0 0 0 0 0 0 0 0 0 0 0 0 0 0 0
2 3 4 5 3 1 0 0 0 0 0 0 0 0 0 0 0 0 0 0 0 0 0 0 0 0 0 0 0 0 0 0 0 0 0 0 0 0 0 0 0 0 0
1 2 4 4 2 1 0 0 0 0 0 0 0 0 0 0 0 0 0 0 0 0 0 0 0 0 0 0 0 0 0 0 0 0 0 0 0 0 0 0 0 0 0
0 1 2 2 1 0 0 0 0 0 0 0 0 0 0 0 0 0 0 0 0 0 0 0 0 0 0 0 0 0 0 0 0 0 0 0 0 0 0 0 0 0 0
0 0 1 1 0 0 0 0 0 0 0 0 0 0 0 0 0 0 0 0 0 0 0 0 0 0 0 0 0 0 0 0 0 0 0 0 0 0 0 0 0 0 0
0 0 0 0 0 0 0 0 0 0 0 0 0 0 0 0 0 0 0 0 0 0 0 0 0 0 0 0 0 0 0 0 0 0 0 0 0 0 0 0 0 0 0
0 0 0 0 0 0 0 0 0 0 0 0 0 0 0 0 0 0 0 0 0 0 0 0 0 0 0 0 0 0 0 0 0 0 0 0 0 0 0 0 0 0 0
0 0 0 0 0 0 0 0 0 0 0 0 0 0 0 0 0 0 0 0 0 0 0 0 0 0 0 0 0 0 0 0 0 0 0 0 0 0 0 0 0 0 0
0 0 0 0 0 0 0 0 0 0 0 0 0 0 0 0 0 0 0 0 0 0 0 0 0 0 0 0 0 0 0 0 0 0 0 0 0 0 0 0 0 0 0
0 0 0 0 0 0 0 0 0 0 0 0 0 0 0 0 0 0 0 0 0 0 0 0 0 0 0 0 0 0 0 0 0 0 0 0 0 0 0 0 0 0 0
0 0 0 0 0 0 0 0 0 0 0 0 0 0 0 0 0 0 0 0 0 0 0 0 0 0 0 0 0 0 0 0 0 0 0 0 0 0 0 0 0 0 0
0 0 0 0 0 0 0 0 0 0 0 0 0 0 0 0 0 0 0 0 0 0 0 0 0 0 0 0 0 0 0 0 0 0 0 0 0 0 0 0 0 0 0
0 0 0 0 0 0 0 0 0 0 0 0 0 0 0 0 0 0 0 0 0 0 0 0 0 0 0 0 0 0 0 0 0 0 0 0 0 0 0 0 0 0 0
0 0 0 0 0 0 0 0 0 0 0 0 0 0 0 0 0 0 0 0 0 0 0 0 0 0 0 0 0 0 0 0 0 0 0 0 0 0 0 0 0 0 0
0 0 0 0 0 0 0 0 0 0 0 0 0 0 0 0 0 0 0 0 0 0 0 0 0 0 0 0 0 0 0 0 0 0 0 0 0 0 0 0 0 0 0
0 0 0 0 0 0 0 0 0 0 0 0 0 0 0 0 0 0 0 0 0 0 0 0 0 0 0 0 0 0 0 0 0 0 0 0 0 0 0 0 0 0 0
0 0 0 0 0 0 0 0 0 0 0 0 0 0 0 0 0 0 0 0 0 0 0 0 0 0 0 0 0 0 0 0 0 0 0 0 0 0 0 0 0 0 0
Wind_Speed
5 4 3 3 4 3 3 3 3 3 3 3 2 3 4 4 3 3 3 8 8 7 6 6 6 6 6 5 5 5 5 4 4 4 3 3 2 1 2 2 2 3 3
5 5 4 4 3 3 3 3 4 3 2 2 2 4 5 5 5 5 4 6 10 10 10 10 9 9 8 8 7 7 7 7 6 6 6 5 4 3 2 1 0 1 1
6 5 5 4 4 4 4 3 3 3 3 4 4 5 5 6 6 6 6 4 5 11 12 12 11 11 10 10 10 10 10 10 10 9 8 8 8 7 6 6 5 5 4
6 5 5 4 4 3 3 4 3 4 4 4 4 4 5 5 7 7 6 5 4 5 9 13 13 13 13 12 12 12 12 12 12 12 12 12 12 11 11 10 9 8 7
5 5 4 4 4 3 3 4 4 5 6 6 5 5 5 5 5 7 8 7 6 6 5 11 15 15 15 14 14 14 13 13 12 12 12 12 12 11 11 11 10 10 9
3 3 4 5 5 4 4 4 5 5 6 6 7 7 6 5 5 6 7 6 6 7 6 6 7 10 16 15 15 14 13 13 13 13 12 12 12 12 11 11 11 10 9
3 4 4 5 5 5 5 6 6 7 6 6 6 6 6 6 7 5 5 5 6 6 6 6 5 5 6 14 14 13 13 13 13 12 12 12 11 10 10 10 10 9 9
1 3 4 4 5 5 6 7 7 5 4 4 5 5 4 3 4 5 4 4 5 4 6 7 6 6 5 4 9 13 13 12 12 11 11 10 10 10 9 9 8 9 9
3 1 2 3 3 4 5 6 7 7 5 2 2 5 5 5 3 3 3 4 4 4 4 4 5 5 5 4 4 9 11 10 10 10 9 9 9 9 9 9 9 9 9
4 3 3 3 3 3 4 4 4 4 6 4 2 2 3 6 6 4 2 2 3 4 3 4 4 4 4 3 4 8 9 8 8 8 8 8 8 8 9 9 9 10 10
6 5 4 4 4 4 4 5 4 4 3 4 3 3 4 3 4 5 5 3 2 2 2 3 3 2 2 2 2 4 6 6 6 7 7 8 8 8 8 9 9 9 10
5 6 6 5 5 5 5 5 6 6 5 5 4 3 3 4 4 4 5 5 3 1 1 2 2 2 2 1 2 4 3 3 3 4 5 6 7 7 8 9 9 9 10
5 5 6 6 5 6 6 7 8 7 7 7 6 4 3 3 3 4 6 5 3 1 1 1 0 1 2 1 1 2 2 2 0 1 3 4 5 6 6 7 8 9 9
5 5 7 7 7 8 8 8 8 7 7 7 7 6 5 4 4 5 5 7 5 2 2 0 1 1 1 2 3 3 2 3 3 2 1 2 3 4 5 5 6 7 8
6 7 8 8 8 8 8 8 8 7 7 8 7 7 6 5 4 4 4 5 6 5 2 1 1 1 1 2 3 2 2 5 6 5 4 3 2 3 3 4 5 5 6
7 8 8 8 8 8 8 8 8 7 9 7 6 8 7 5 5 5 4 3 4 5 4 2 2 2 1 2 3 2 3 6 6 7 5 4 4 3 3 4 4 5 5
7 8 8 8 8 8 8 8 8 8 9 8 7 9 8 7 6 5 4 5 4 4 5 1 0 1 0 1 2 2 2 2 3 6 6 6 5 5 4 4 4 3 4
8 7 8 9 9 9 8 8 9 9 9 9 8 9 8 7 7 6 5 5 4 3 5 3 1 2 1 1 2 2 2 1 2 4 6 6 6 6 5 4 4 3 3
8 8 9 9 8 8 8 8 8 8 8 8 8 8 7 8 8 6 6 6 4 4 4 4 2 2 2 2 2 3 3 2 2 2 4 6 6 6 6 5 5 4 4
9 9 9 9 8 8 8 8 8 8 8 7 7 7 7 7 6 6 6 5 5 5 5 4 3 2 2 2 3 3 3 3 2 2 2 3 4 5 5 6 6 6 5
9 9 9 9 8 7 6 7 6 7 7 7 7 6 7 8 8 6 5 4 5 5 4 4 3 2 2 3 2 2 2 3 3 1 2 2 1 1 3 5 6 7 7
8 9 9 9 9 6 9 10 7 6 6 6 6 6 6 8 9 9 8 6 6 5 4 3 2 1 1 1 1 1 1 2 3 3 2 3 1 2 3 3 6 8 8
8 8 8 8 7 7 11 11 10 6 6 5 5 4 5 6 6 5 7 8 5 4 5 4 3 2 2 2 1 1 1 1 3 3 1 2 2 2 3 4 7 8 9
6 6 6 6 6 8 11 11 10 7 6 6 5 5 5 5 5 5 6 6 5 3 1 2 3 3 4 3 3 2 2 2 3 2 1 1 3 2 3 3 6 8 9
5 5 5 6 6 6 9 9 8 5 6 6 5 5 5 5 7 8 6 5 5 4 3 2 3 4 6 5 4 1 1 2 2 3 1 0 2 2 3 3 5 7 8
5 5 5 5 5 5 8 8 8 5 5 4 4 4 5 5 6 7 5 4 3 3 5 6 5 5 3 2 3 4 2 2 1 3 3 0 1 1 3 4 3 3 4
Wind_Direction
179 176 176 175 182 178 184 192 192 201 210 216 198 162 139 127 115 102 106 123 126 125 127 128 123 119 114 108 102 98 95 93 97 99 101 109 125 161 190 209 206 204 209
172 171 166 175 185 184 188 187 187 180 176 148 126 127 123 120 108 104 93 98 105 106 102 101 101 99 96 92 89 85 82 80 79 82 77 72 68 65 58 55 352 224 217
172 172 170 178 193 186 186 177 168 135 130 111 100 100 109 111 111 104 95 87 90 93 94 92 90 89 89 89 86 83 80 76 72 71 68 63 59 57 53 51 52 55 57
173 168 172 179 182 167 168 164 151 126 117 109 101 98 99 104 105 103 96 87 78 80 83 87 84 82 81 81 80 80 78 77 74 71 69 67 64 60 58 57 57 56 54
171 166 170 168 166 167 171 166 148 139 130 119 106 88 80 89 96 99 94 87 84 82 77 82 82 81 79 78 77 76 76 75 73 71 69 67 63 59 58 54 51 48 45
172 174 176 167 163 166 164 151 138 135 128 125 107 87 73 73 77 84 90 87 82 81 77 75 70 74 77 76 74 73 72 72 70 67 65 62 57 54 52 51 48 44 40
182 188 188 169 165 170 164 151 139 131 127 126 109 96 68 61 68 69 80 86 84 84 81 75 70 66 69 70 71 72 71 70 68 65 61 58 54 49 46 45 43 38 33
181 190 183 176 171 161 154 151 144 139 147 152 133 128 121 79 59 59 70 88 89 86 88 87 81 78 70 57 73 75 70 68 67 65 61 55 49 45 41 38 35 33 29
55 74 144 153 153 157 160 158 155 152 156 160 154 143 147 156 131 66 59 76 89 89 90 90 89 86 83 68 62 68 71 65 64 61 56 50 45 39 35 32 29 27 25
62 63 72 108 119 119 131 140 145 144 147 153 130 93 121 136 141 134 85 66 91 100 104 105 98 92 89 82 80 81 77 68 61 54 49 45 42 38 33 30 27 23 18
55 61 70 79 90 97 106 111 117 120 130 141 141 127 103 93 103 129 141 140 89 69 91 106 116 117 109 101 101 100 89 73 61 54 48 44 41 37 32 27 24 22 20
55 55 70 72 79 84 88 93 94 95 95 99 98 106 129 133 140 130 135 142 133 110 66 82 124 146 154 159 177 134 116 87 62 51 43 38 35 32 29 26 24 22 19
71 61 73 77 79 80 81 83 85 83 86 91 91 90 89 101 128 126 128 131 120 97 66 42 94 167 173 179 222 187 183 178 130 26 25 22 21 20 22 23 21 19 16
87 80 78 76 76 78 80 80 81 79 80 82 81 79 79 69 88 119 132 133 121 84 63 59 358 226 205 201 235 228 240 239 242 264 311 339 354 2 9 11 10 9 8
91 80 78 78 74 75 78 83 83 81 80 77 75 74 74 69 72 79 106 132 137 136 144 228 242 255 219 220 239 225 240 248 243 245 253 262 288 317 335 346 352 358 0
86 85 81 84 82 79 80 83 83 81 82 75 77 75 68 66 69 71 84 85 103 125 135 202 220 231 220 229 236 237 252 257 243 237 239 242 255 276 295 311 330 347 355
85 85 86 84 83 81 79 82 82 79 79 74 71 75 70 69 72 63 69 78 83 102 116 98 341 337 11 308 316 311 281 255 248 239 237 239 244 253 270 289 309 331 345
82 81 82 81 82 80 77 81 84 78 80 79 74 73 69 73 65 62 71 76 81 92 117 110 35 10 354 309 318 319 317 282 257 248 239 238 240 245 251 263 276 293 317
81 76 74 76 75 78 79 81 83 82 81 80 79 78 74 75 68 64 66 67 68 74 85 106 77 18 2 358 9 352 352 343 288 249 235 242 246 246 243 249 260 271 288
79 76 72 70 71 74 77 80 83 82 79 75 75 75 74 78 80 75 71 68 77 76 77 86 73 35 18 355 33 13 353 341 330 328 308 270 251 250 249 249 254 261 273
80 78 76 69 63 62 67 78 83 88 84 77 68 66 70 76 77 77 86 83 84 83 80 80 69 41 16 16 3 334 348 328 323 329 327 315 303 279 269 262 257 258 265
77 78 74 71 64 61 71 76 85 83 84 84 77 65 61 53 56 61 74 92 108 110 107 98 86 80 315 299 318 344 1 8 323 312 347 313 333 274 268 253 252 255 262
82 79 77 76 69 60 69 76 84 88 86 88 88 76 65 49 47 51 54 60 65 95 127 139 144 200 227 234 242 344 338 280 257 278 3 313 318 288 275 263 255 257 263
91 89 83 77 70 56 63 70 80 77 79 82 89 92 83 51 43 66 67 56 42 32 101 172 200 226 228 220 197 204 237 287 298 298 104 310 309 296 295 293 274 265 267
92 89 86 80 72 46 51 68 84 80 78 71 74 80 84 69 56 72 73 61 36 2 360 346 261 255 254 242 200 150 25 45 348 307 322 162 295 310 306 293 286 281 279
98 95 84 77 76 56 52 76 96 95 89 79 59 54 64 74 65 70 77 71 38 338 337 343 350 348 335 313 209 184 177 157 230 288 281 228 289 338 324 297 291 295 294